STARLINK BE (44287 NORAD) Tracking and Keplerian Element Data

This shows tracking and keplerian element data for the satellite.

Feedback or suggestion? Click here.




ElementValue
Catalog44287
NameSTARLINK BE
Epoch Orbit386
Epoch Day173.92089263
Epoch Year2019
RAAN38.3296
Inclination53.0009
Eccentricity0.0002289
Argument of Perigee110.1774
Mean Anonmoly249.946
Mean Motion15.05384582
Decay Rate1.559E-05
L11 44287U 19029BE 19173.92089263 .00001559 00000-0 12678-3 0 9993
L22 44287 53.0009 38.3296 0002289 110.1774 249.9460 15.05384582 3869

Live tracking and technical data element details for STARLINK BE (NORAD 44287). STARLINK BE can be tracked NOW for your location showing map with azimuth and elevation plus other details from your city location.

Track the satellite on the map from your city or location and see movement details for azimuth, elevation, latitude, longitude, range, height, and movement on the map or in text.







IsCatalogInMostPopularTable: catalog: 44287, numindb: 72
Update: records affected: 1



GetName: 44287 STARLINK BE

Hit Count: updated at: Fri, 19 Jul 2019 08:47:06 GMT